Time,TemperatureF,DewpointF,PressureIn,WindDirection,WindDirectionDegrees,WindSpeedMPH,WindSpeedGustMPH,Humidity,HourlyPrecipIn,Conditions,Clouds,dailyrainin,SoftwareType,DateUTC
2013-04-15 00:00:00,41.0,32.7,29.88,NE,45,2.0,6.0,72,0.00,,,0.05,meteohub,2013-04-15 04:00:00,
2013-04-15 00:01:00,41.0,32.7,29.89,NE,45,2.0,6.0,72,0.00,,,0.05,meteohub,2013-04-15 04:01:00,
2013-04-15 00:06:00,41.0,32.7,29.88,NE,45,2.0,4.0,72,0.00,,,0.00,meteohub,2013-04-15 04:06:00,
2013-04-15 00:12:00,40.6,32.7,29.88,East,90,3.0,4.0,73,0.00,,,0.00,meteohub,2013-04-15 04:12:00,
2013-04-15 00:17:00,40.6,33.1,29.88,East,90,3.0,4.0,74,0.00,,,0.00,meteohub,2013-04-15 04:17:00,
2013-04-15 00:22:00,40.6,33.1,29.88,East,90,4.0,4.0,74,0.00,,,0.00,meteohub,2013-04-15 04:22:00,
2013-04-15 00:27:00,40.6,33.1,29.88,East,90,4.0,4.0,74,0.00,,,0.00,meteohub,2013-04-15 04:27:00,
2013-04-15 00:32:00,40.6,33.1,29.88,North,0,3.0,4.0,74,0.00,,,0.00,meteohub,2013-04-15 04:32:00,
2013-04-15 00:38:00,40.6,33.1,29.88,East,90,4.0,4.0,74,0.00,,,0.00,meteohub,2013-04-15 04:38:00,
2013-04-15 00:43:00,40.8,33.3,29.88,North,0,2.0,4.0,74,0.00,,,0.00,meteohub,2013-04-15 04:43:00,
2013-04-15 00:48:00,40.8,33.3,29.88,South,180,3.0,4.0,74,0.00,,,0.00,meteohub,2013-04-15 04:48:00,
2013-04-15 00:53:00,40.8,33.3,29.88,South,180,4.0,4.0,74,0.00,,,0.00,meteohub,2013-04-15 04:53:00,
2013-04-15 00:59:00,41.0,33.1,29.87,East,90,3.0,4.0,73,0.00,,,0.00,meteohub,2013-04-15 04:59:00,
2013-04-15 01:04:00,41.0,33.1,29.87,SW,225,4.0,4.0,73,0.00,,,0.00,meteohub,2013-04-15 05:04:00,
2013-04-15 01:09:00,41.0,33.1,29.87,SE,135,2.0,4.0,73,0.00,,,0.00,meteohub,2013-04-15 05:09:00,
2013-04-15 01:14:00,41.0,33.1,29.87,NE,45,3.0,4.0,73,0.00,,,0.00,meteohub,2013-04-15 05:14:00,
2013-04-15 01:19:00,41.0,33.1,29.87,NE,45,2.0,4.0,73,0.00,,,0.00,meteohub,2013-04-15 05:19:00,
2013-04-15 01:24:00,41.0,33.1,29.87,West,270,4.0,4.0,73,0.00,,,0.00,meteohub,2013-04-15 05:24:00,
2013-04-15 01:29:00,41.0,33.1,29.87,NE,45,3.0,4.0,73,0.00,,,0.00,meteohub,2013-04-15 05:29:00,
2013-04-15 01:35:00,41.0,33.1,29.87,SE,135,2.0,4.0,73,0.00,,,0.00,meteohub,2013-04-15 05:35:00,
2013-04-15 01:40:00,41.0,33.1,29.87,East,90,2.0,4.0,73,0.00,,,0.00,meteohub,2013-04-15 05:40:00,
2013-04-15 01:45:00,40.8,33.3,29.87,NE,45,3.0,4.0,74,0.00,,,0.00,meteohub,2013-04-15 05:45:00,
2013-04-15 01:50:00,40.8,33.3,29.87,East,90,2.0,4.0,74,0.00,,,0.00,meteohub,2013-04-15 05:50:00,
2013-04-15 01:55:00,40.8,33.3,29.87,SSE,158,3.0,4.0,74,0.00,,,0.00,meteohub,2013-04-15 05:55:00,
2013-04-15 02:00:00,40.8,33.3,29.87,SE,135,4.0,4.0,74,0.00,,,0.00,meteohub,2013-04-15 06:00:00,
2013-04-15 02:06:00,40.8,33.3,29.87,SE,135,4.0,4.0,74,0.00,,,0.00,meteohub,2013-04-15 06:06:00,
2013-04-15 02:11:00,40.6,33.1,29.86,NE,45,2.0,4.0,74,0.00,,,0.00,meteohub,2013-04-15 06:11:00,
2013-04-15 02:16:00,40.5,32.9,29.87,East,90,3.0,4.0,74,0.00,,,0.00,meteohub,2013-04-15 06:16:00,
2013-04-15 02:21:00,40.5,32.9,29.86,NE,45,3.0,4.0,74,0.00,,,0.00,meteohub,2013-04-15 06:21:00,
2013-04-15 02:27:00,40.5,33.1,29.86,East,90,2.0,4.0,75,0.00,,,0.00,meteohub,2013-04-15 06:27:00,
2013-04-15 02:32:00,40.5,33.1,29.86,NE,45,3.0,4.0,75,0.00,,,0.00,meteohub,2013-04-15 06:32:00,
2013-04-15 02:37:00,40.5,33.1,29.86,NE,45,2.0,4.0,75,0.00,,,0.00,meteohub,2013-04-15 06:37:00,
2013-04-15 02:42:00,40.5,33.1,29.86,East,90,2.0,4.0,75,0.00,,,0.00,meteohub,2013-04-15 06:42:00,
2013-04-15 02:48:00,40.3,33.1,29.86,East,90,3.0,4.0,75,0.00,,,0.00,meteohub,2013-04-15 06:48:00,
2013-04-15 02:53:00,40.3,33.1,29.86,NE,45,3.0,4.0,75,0.00,,,0.00,meteohub,2013-04-15 06:53:00,
2013-04-15 02:58:00,40.1,32.9,29.86,SW,225,2.0,5.0,75,0.00,,,0.00,meteohub,2013-04-15 06:58:00,
2013-04-15 03:03:00,40.1,32.9,29.86,NE,45,3.0,5.0,75,0.00,,,0.00,meteohub,2013-04-15 07:03:00,
2013-04-15 03:41:00,40.5,33.1,29.86,NE,45,3.0,4.0,75,0.00,,,0.00,meteohub,2013-04-15 07:41:00,
2013-04-15 03:42:00,40.5,33.4,29.87,SW,225,1.0,4.0,76,0.00,,,0.00,meteohub,2013-04-15 07:42:00,
2013-04-15 03:49:00,40.5,33.4,29.87,North,0,2.0,4.0,76,0.00,,,0.00,meteohub,2013-04-15 07:49:00,
2013-04-15 03:50:00,40.6,33.6,29.87,SE,135,2.0,4.0,76,0.00,,,0.00,meteohub,2013-04-15 07:50:00,
2013-04-15 03:51:00,40.6,33.6,29.87,SE,135,2.0,4.0,76,0.00,,,0.00,meteohub,2013-04-15 07:51:00,
2013-04-15 03:56:00,40.8,33.8,29.87,North,0,3.0,4.0,76,0.00,,,0.00,meteohub,2013-04-15 07:56:00,
2013-04-15 04:02:00,41.0,33.6,29.87,East,90,2.0,3.0,75,0.00,,,0.00,meteohub,2013-04-15 08:02:00,
2013-04-15 04:07:00,41.0,33.6,29.88,East,90,2.0,3.0,75,0.00,,,0.00,meteohub,2013-04-15 08:07:00,
2013-04-15 04:12:00,41.2,33.8,29.88,East,90,2.0,3.0,75,0.00,,,0.00,meteohub,2013-04-15 08:12:00,
2013-04-15 04:17:00,41.2,33.8,29.87,SE,135,2.0,2.0,75,0.00,,,0.00,meteohub,2013-04-15 08:17:00,
2013-04-15 04:23:00,41.2,33.8,29.87,NW,315,2.0,2.0,75,0.00,,,0.00,meteohub,2013-04-15 08:23:00,
2013-04-15 04:29:00,41.2,33.4,29.88,North,0,2.0,2.0,74,0.00,,,0.00,meteohub,2013-04-15 08:29:00,
2013-04-15 04:34:00,41.2,33.4,29.88,NE,45,2.0,3.0,74,0.00,,,0.00,meteohub,2013-04-15 08:34:00,
2013-04-15 04:36:00,41.2,33.4,29.88,NE,45,1.0,3.0,74,0.00,,,0.00,meteohub,2013-04-15 08:36:00,
2013-04-15 04:40:00,41.2,33.4,29.88,NE,45,1.0,3.0,74,0.00,,,0.00,meteohub,2013-04-15 08:40:00,
2013-04-15 04:42:00,41.0,33.6,29.89,NNE,23,1.0,3.0,75,0.00,,,0.00,meteohub,2013-04-15 08:42:00,
2013-04-15 04:47:00,40.6,33.6,29.89,NW,315,0.0,2.0,76,0.00,,,0.00,meteohub,2013-04-15 08:47:00,
2013-04-15 04:52:00,40.1,33.1,29.89,NW,315,0.0,2.0,76,0.00,,,0.00,meteohub,2013-04-15 08:52:00,
2013-04-15 04:58:00,39.6,32.5,29.89,East,90,2.0,2.0,76,0.00,,,0.00,meteohub,2013-04-15 08:58:00,
2013-04-15 05:03:00,39.6,32.5,29.90,SE,135,1.0,2.0,76,0.00,,,0.00,meteohub,2013-04-15 09:03:00,
2013-04-15 05:08:00,39.6,32.9,29.89,SW,225,1.0,2.0,77,0.00,,,0.00,meteohub,2013-04-15 09:08:00,
2013-04-15 05:13:00,39.6,33.3,29.90,East,90,2.0,2.0,78,0.00,,,0.00,meteohub,2013-04-15 09:13:00,
2013-04-15 05:18:00,39.7,33.4,29.90,East,90,2.0,2.0,78,0.00,,,0.00,meteohub,2013-04-15 09:18:00,
2013-04-15 05:23:00,39.7,33.4,29.90,East,90,0.0,2.0,78,0.00,,,0.00,meteohub,2013-04-15 09:23:00,
2013-04-15 05:29:00,39.4,33.1,29.90,East,90,0.0,2.0,78,0.00,,,0.00,meteohub,2013-04-15 09:29:00,
2013-04-15 05:34:00,39.2,32.9,29.90,East,90,0.0,2.0,78,0.00,,,0.00,meteohub,2013-04-15 09:34:00,
2013-04-15 05:39:00,38.8,32.9,29.90,North,0,0.0,1.0,79,0.00,,,0.00,meteohub,2013-04-15 09:39:00,
2013-04-15 05:44:00,38.8,33.3,29.91,West,270,2.0,0.0,80,0.00,,,0.00,meteohub,2013-04-15 09:44:00,
2013-04-15 05:49:00,38.8,33.3,29.91,West,270,4.0,4.0,80,0.00,,,0.00,meteohub,2013-04-15 09:49:00,
2013-04-15 05:55:00,39.2,33.6,29.90,NE,45,2.0,4.0,80,0.00,,,0.00,meteohub,2013-04-15 09:55:00,
2013-04-15 06:00:00,39.4,34.0,29.90,West,270,4.0,5.0,81,0.00,,,0.00,meteohub,2013-04-15 10:00:00,
2013-04-15 06:05:00,39.4,34.0,29.90,West,270,4.0,5.0,81,0.00,,,0.00,meteohub,2013-04-15 10:05:00,
2013-04-15 06:10:00,39.4,34.0,29.90,East,90,1.0,5.0,81,0.00,,,0.00,meteohub,2013-04-15 10:10:00,
2013-04-15 06:15:00,39.0,33.6,29.90,East,90,2.0,4.0,81,0.00,,,0.00,meteohub,2013-04-15 10:15:00,
2013-04-15 06:21:00,38.8,33.4,29.90,East,90,0.0,4.0,81,0.00,,,0.00,meteohub,2013-04-15 10:21:00,
2013-04-15 06:26:00,38.5,33.1,29.90,ESE,113,2.0,3.0,81,0.00,,,0.00,meteohub,2013-04-15 10:26:00,
2013-04-15 06:31:00,38.1,32.7,29.90,East,90,0.0,2.0,81,0.00,,,0.00,meteohub,2013-04-15 10:31:00,
2013-04-15 06:36:00,37.9,32.9,29.90,South,180,0.0,2.0,82,0.00,,,0.00,meteohub,2013-04-15 10:36:00,
2013-04-15 06:42:00,37.9,32.9,29.90,East,90,2.0,2.0,82,0.00,,,0.00,meteohub,2013-04-15 10:42:00,
2013-04-15 06:47:00,37.9,32.9,29.90,NE,45,0.0,2.0,82,0.00,,,0.00,meteohub,2013-04-15 10:47:00,
2013-04-15 06:52:00,38.1,33.1,29.90,South,180,0.0,2.0,82,0.00,,,0.00,meteohub,2013-04-15 10:52:00,
2013-04-15 06:57:00,38.1,33.4,29.90,East,90,0.0,2.0,83,0.00,,,0.00,meteohub,2013-04-15 10:57:00,
2013-04-15 07:02:00,38.5,33.8,29.90,North,0,0.0,2.0,83,0.00,,,0.00,meteohub,2013-04-15 11:02:00,
2013-04-15 07:07:00,38.8,34.2,29.89,NE,45,2.0,3.0,83,0.00,,,0.00,meteohub,2013-04-15 11:07:00,
2013-04-15 07:12:00,39.2,34.5,29.90,SE,135,2.0,3.0,83,0.00,,,0.00,meteohub,2013-04-15 11:12:00,
2013-04-15 07:17:00,39.4,34.3,29.90,East,90,2.0,3.0,82,0.00,,,0.00,meteohub,2013-04-15 11:17:00,
2013-04-15 07:24:00,39.7,34.7,29.90,SW,225,0.0,3.0,82,0.00,,,0.00,meteohub,2013-04-15 11:24:00,
2013-04-15 07:31:00,39.9,34.9,29.89,NE,45,2.0,3.0,82,0.00,,,0.00,meteohub,2013-04-15 11:31:00,
2013-04-15 07:37:00,40.6,35.6,29.89,North,0,2.0,3.0,82,0.00,,,0.00,meteohub,2013-04-15 11:37:00,
2013-04-15 07:42:00,41.2,35.8,29.89,North,0,3.0,3.0,81,0.00,,,0.00,meteohub,2013-04-15 11:42:00,
2013-04-15 07:47:00,41.7,36.0,29.89,NW,315,2.0,3.0,80,0.00,,,0.00,meteohub,2013-04-15 11:47:00,
2013-04-15 07:52:00,42.1,36.3,29.89,NW,315,2.0,4.0,80,0.00,,,0.00,meteohub,2013-04-15 11:52:00,
2013-04-15 07:57:00,42.4,36.3,29.89,NE,45,0.0,4.0,79,0.00,,,0.00,meteohub,2013-04-15 11:57:00,
2013-04-15 08:02:00,42.6,36.5,29.89,SE,135,0.0,4.0,79,0.00,,,0.00,meteohub,2013-04-15 12:02:00,
2013-04-15 08:07:00,42.6,36.5,29.90,SE,135,0.0,3.0,79,0.00,,,0.00,meteohub,2013-04-15 12:07:00,
2013-04-15 08:12:00,43.3,36.9,29.90,South,180,1.0,3.0,78,0.00,,,0.00,meteohub,2013-04-15 12:12:00,
2013-04-15 08:17:00,44.1,37.6,29.90,South,180,0.0,4.0,78,0.00,,,0.00,meteohub,2013-04-15 12:17:00,
2013-04-15 08:23:00,44.6,37.6,29.90,NE,45,2.0,4.0,76,0.00,,,0.00,meteohub,2013-04-15 12:23:00,
2013-04-15 08:28:00,45.1,37.9,29.90,NE,45,3.0,4.0,76,0.00,,,0.00,meteohub,2013-04-15 12:28:00,
2013-04-15 08:33:00,45.7,38.5,29.90,NE,45,2.0,3.0,76,0.00,,,0.00,meteohub,2013-04-15 12:33:00,
2013-04-15 08:38:00,46.8,39.6,29.90,SSE,158,2.0,3.0,76,0.00,,,0.00,meteohub,2013-04-15 12:38:00,
2013-04-15 08:44:00,47.3,39.7,29.89,NW,315,0.0,3.0,75,0.00,,,0.00,meteohub,2013-04-15 12:44:00,
2013-04-15 08:49:00,48.0,40.1,29.89,NE,45,2.0,3.0,74,0.00,,,0.00,meteohub,2013-04-15 12:49:00,
2013-04-15 08:55:00,48.6,39.9,29.90,WSW,248,3.0,3.0,72,0.00,,,0.00,meteohub,2013-04-15 12:55:00,
2013-04-15 09:00:00,48.7,39.7,29.90,South,180,2.0,4.0,71,0.00,,,0.00,meteohub,2013-04-15 13:00:00,
2013-04-15 09:08:00,48.9,39.9,29.90,North,0,2.0,5.0,71,0.00,,,0.00,meteohub,2013-04-15 13:08:00,
2013-04-15 09:13:00,49.6,40.3,29.91,South,180,3.0,5.0,70,0.00,,,0.00,meteohub,2013-04-15 13:13:00,
2013-04-15 09:19:00,50.0,40.3,29.91,SE,135,2.0,3.0,69,0.00,,,0.00,meteohub,2013-04-15 13:19:00,
2013-04-15 09:24:00,50.5,40.8,29.91,NW,315,0.0,3.0,69,0.00,,,0.00,meteohub,2013-04-15 13:24:00,
2013-04-15 09:29:00,50.7,40.5,29.92,South,180,4.0,4.0,68,0.00,,,0.00,meteohub,2013-04-15 13:29:00,
2013-04-15 09:35:00,50.9,40.6,29.91,SW,225,4.0,6.0,68,0.00,,,0.00,meteohub,2013-04-15 13:35:00,
2013-04-15 09:40:00,50.9,40.6,29.91,East,90,2.0,6.0,68,0.00,,,0.00,meteohub,2013-04-15 13:40:00,
2013-04-15 09:45:00,51.1,40.8,29.91,West,270,3.0,6.0,68,0.00,,,0.00,meteohub,2013-04-15 13:45:00,
2013-04-15 09:50:00,51.3,41.0,29.91,SE,135,2.0,5.0,68,0.00,,,0.00,meteohub,2013-04-15 13:50:00,
2013-04-15 09:56:00,52.5,42.3,29.91,South,180,3.0,4.0,68,0.00,,,0.00,meteohub,2013-04-15 13:56:00,
2013-04-15 10:01:00,53.2,42.3,29.91,South,180,3.0,5.0,66,0.00,,,0.00,meteohub,2013-04-15 14:01:00,
2013-04-15 10:07:00,54.0,42.8,29.90,SE,135,4.0,5.0,66,0.00,,,0.00,meteohub,2013-04-15 14:07:00,
2013-04-15 10:12:00,54.7,43.5,29.90,SW,225,5.0,6.0,66,0.00,,,0.00,meteohub,2013-04-15 14:12:00,
2013-04-15 10:20:00,55.4,44.2,29.90,South,180,8.0,8.0,66,0.00,,,0.00,meteohub,2013-04-15 14:20:00,
2013-04-15 10:25:00,56.1,45.0,29.90,South,180,4.0,8.0,66,0.00,,,0.00,meteohub,2013-04-15 14:25:00,
2013-04-15 10:30:00,56.8,45.1,29.90,SW,225,5.0,8.0,65,0.00,,,0.00,meteohub,2013-04-15 14:30:00,
2013-04-15 10:35:00,57.6,45.5,29.90,South,180,6.0,7.0,64,0.00,,,0.00,meteohub,2013-04-15 14:35:00,
2013-04-15 10:40:00,57.9,45.3,29.90,North,0,8.0,8.0,63,0.00,,,0.00,meteohub,2013-04-15 14:40:00,
2013-04-15 10:47:00,58.5,45.9,29.90,North,0,3.0,8.0,63,0.00,,,0.00,meteohub,2013-04-15 14:47:00,
2013-04-15 10:52:00,58.6,46.0,29.90,SW,225,6.0,8.0,63,0.00,,,0.00,meteohub,2013-04-15 14:52:00,
2013-04-15 10:57:00,58.6,45.7,29.90,SW,225,2.0,8.0,62,0.00,,,0.00,meteohub,2013-04-15 14:57:00,
2013-04-15 11:02:00,58.8,45.9,29.90,South,180,4.0,8.0,62,0.00,,,0.00,meteohub,2013-04-15 15:02:00,
2013-04-15 11:07:00,58.6,45.7,29.90,SW,225,4.0,8.0,62,0.00,,,0.00,meteohub,2013-04-15 15:07:00,
2013-04-15 11:12:00,58.5,45.9,29.90,SW,225,4.0,8.0,63,0.00,,,0.00,meteohub,2013-04-15 15:12:00,
2013-04-15 11:17:00,58.3,45.7,29.91,NW,315,6.0,8.0,63,0.00,,,0.00,meteohub,2013-04-15 15:17:00,
2013-04-15 11:25:00,58.5,45.9,29.91,South,180,9.0,9.0,63,0.00,,,0.00,meteohub,2013-04-15 15:25:00,
2013-04-15 11:31:00,59.4,46.8,29.91,South,180,4.0,9.0,63,0.00,,,0.00,meteohub,2013-04-15 15:31:00,
2013-04-15 11:37:00,60.3,47.7,29.90,South,180,5.0,10.0,63,0.00,,,0.00,meteohub,2013-04-15 15:37:00,
2013-04-15 11:42:00,60.8,47.3,29.90,SW,225,3.0,10.0,61,0.00,,,0.00,meteohub,2013-04-15 15:42:00,
2013-04-15 11:47:00,61.9,47.8,29.90,WNW,293,8.0,10.0,60,0.00,,,0.00,meteohub,2013-04-15 15:47:00,
2013-04-15 11:52:00,62.4,48.4,29.89,South,180,6.0,8.0,60,0.00,,,0.00,meteohub,2013-04-15 15:52:00,
2013-04-15 11:59:00,62.6,47.7,29.89,East,90,8.0,11.0,58,0.00,,,0.00,meteohub,2013-04-15 15:59:00,
2013-04-15 12:07:00,63.0,48.4,29.89,South,180,2.0,11.0,59,0.00,,,0.00,meteohub,2013-04-15 16:07:00,
2013-04-15 12:12:00,63.5,48.4,29.89,SW,225,5.0,11.0,58,0.00,,,0.00,meteohub,2013-04-15 16:12:00,
2013-04-15 12:17:00,64.6,48.9,29.88,SW,225,8.0,9.0,57,0.00,,,0.00,meteohub,2013-04-15 16:17:00,
2013-04-15 12:22:00,64.9,49.3,29.88,South,180,8.0,12.0,57,0.00,,,0.00,meteohub,2013-04-15 16:22:00,
2013-04-15 12:29:00,65.5,49.8,29.88,North,0,6.0,12.0,57,0.00,,,0.00,meteohub,2013-04-15 16:29:00,
2013-04-15 12:34:00,66.6,50.4,29.88,SW,225,5.0,12.0,56,0.00,,,0.00,meteohub,2013-04-15 16:34:00,
2013-04-15 12:40:00,67.1,50.4,29.88,South,180,8.0,10.0,55,0.00,,,0.00,meteohub,2013-04-15 16:40:00,
2013-04-15 12:47:00,67.1,49.8,29.88,East,90,6.0,8.0,54,0.00,,,0.00,meteohub,2013-04-15 16:47:00,
2013-04-15 12:52:00,67.3,50.5,29.88,South,180,13.0,13.0,55,0.00,,,0.00,meteohub,2013-04-15 16:52:00,
2013-04-15 12:59:00,67.3,50.0,29.88,West,270,11.0,13.0,54,0.00,,,0.00,meteohub,2013-04-15 16:59:00,
2013-04-15 13:04:00,67.3,50.0,29.88,SW,225,7.0,13.0,54,0.00,,,0.00,meteohub,2013-04-15 17:04:00,
2013-04-15 13:09:00,67.3,50.0,29.88,SW,225,6.0,13.0,54,0.00,,,0.00,meteohub,2013-04-15 17:09:00,
2013-04-15 13:15:00,67.3,50.5,29.88,South,180,9.0,13.0,55,0.00,,,0.00,meteohub,2013-04-15 17:15:00,
2013-04-15 13:21:00,67.8,50.5,29.88,South,180,8.0,13.0,54,0.00,,,0.00,meteohub,2013-04-15 17:21:00,
2013-04-15 13:22:00,68.0,50.2,29.88,SW,225,7.0,13.0,53,0.00,,,0.00,meteohub,2013-04-15 17:22:00,
2013-04-15 13:24:00,68.0,50.2,29.88,South,180,10.0,13.0,53,0.00,,,0.00,meteohub,2013-04-15 17:24:00,
2013-04-15 13:25:00,68.0,50.2,29.88,SW,225,10.0,13.0,53,0.00,,,0.00,meteohub,2013-04-15 17:25:00,
2013-04-15 13:32:00,67.8,50.5,29.88,South,180,9.0,13.0,54,0.00,,,0.00,meteohub,2013-04-15 17:32:00,
2013-04-15 13:37:00,67.6,50.4,29.88,West,270,9.0,13.0,54,0.00,,,0.00,meteohub,2013-04-15 17:37:00,
2013-04-15 13:43:00,68.0,50.2,29.88,South,180,10.0,13.0,53,0.00,,,0.00,meteohub,2013-04-15 17:43:00,
2013-04-15 13:48:00,67.6,50.4,29.88,SE,135,6.0,11.0,54,0.00,,,0.00,meteohub,2013-04-15 17:48:00,
2013-04-15 13:53:00,67.6,50.4,29.88,South,180,8.0,11.0,54,0.00,,,0.00,meteohub,2013-04-15 17:53:00,
2013-04-15 13:58:00,68.0,50.2,29.87,East,90,4.0,11.0,53,0.00,,,0.00,meteohub,2013-04-15 17:58:00,
2013-04-15 14:04:00,68.7,50.9,29.88,SW,225,10.0,11.0,53,0.00,,,0.00,meteohub,2013-04-15 18:04:00,
2013-04-15 14:09:00,68.7,50.4,29.87,South,180,7.0,11.0,52,0.00,,,0.00,meteohub,2013-04-15 18:09:00,
2013-04-15 14:17:00,68.2,50.4,29.87,SW,225,8.0,12.0,53,0.00,,,0.00,meteohub,2013-04-15 18:17:00,
2013-04-15 14:22:00,67.5,50.2,29.87,SW,225,7.0,12.0,54,0.00,,,0.00,meteohub,2013-04-15 18:22:00,
2013-04-15 14:29:00,67.5,50.2,29.87,South,180,6.0,12.0,54,0.00,,,0.00,meteohub,2013-04-15 18:29:00,
2013-04-15 14:30:00,67.5,50.2,29.87,North,0,6.0,12.0,54,0.00,,,0.00,meteohub,2013-04-15 18:30:00,
2013-04-15 14:31:00,67.5,50.2,29.87,North,0,6.0,12.0,54,0.00,,,0.00,meteohub,2013-04-15 18:31:00,
2013-04-15 14:37:00,67.3,50.0,29.86,SW,225,8.0,12.0,54,0.00,,,0.00,meteohub,2013-04-15 18:37:00,
2013-04-15 14:42:00,67.3,50.0,29.87,SW,225,10.0,12.0,54,0.00,,,0.00,meteohub,2013-04-15 18:42:00,
2013-04-15 14:47:00,67.3,50.5,29.86,SW,225,7.0,10.0,55,0.00,,,0.00,meteohub,2013-04-15 18:47:00,
2013-04-15 14:52:00,67.3,50.0,29.87,SW,225,8.0,10.0,54,0.00,,,0.00,meteohub,2013-04-15 18:52:00,
2013-04-15 14:57:00,66.9,49.8,29.86,South,180,6.0,13.0,54,0.00,,,0.00,meteohub,2013-04-15 18:57:00,
2013-04-15 15:02:00,66.9,50.2,29.86,SW,225,6.0,13.0,55,0.00,,,0.00,meteohub,2013-04-15 19:02:00,
2013-04-15 15:07:00,66.9,49.8,29.86,SW,225,7.0,13.0,54,0.00,,,0.00,meteohub,2013-04-15 19:07:00,
2013-04-15 15:12:00,67.1,50.4,29.86,South,180,6.0,9.0,55,0.00,,,0.00,meteohub,2013-04-15 19:12:00,
2013-04-15 15:17:00,67.3,50.5,29.86,SW,225,5.0,11.0,55,0.00,,,0.00,meteohub,2013-04-15 19:17:00,
2013-04-15 15:22:00,67.1,50.4,29.86,South,180,10.0,11.0,55,0.00,,,0.00,meteohub,2013-04-15 19:22:00,
2013-04-15 15:27:00,67.1,50.4,29.85,North,0,8.0,10.0,55,0.00,,,0.00,meteohub,2013-04-15 19:27:00,
2013-04-15 15:32:00,67.1,50.4,29.85,SW,225,7.0,10.0,55,0.00,,,0.00,meteohub,2013-04-15 19:32:00,
2013-04-15 15:37:00,67.1,50.4,29.85,SE,135,4.0,10.0,55,0.00,,,0.00,meteohub,2013-04-15 19:37:00,
2013-04-15 15:45:00,67.1,50.4,29.86,South,180,7.0,10.0,55,0.00,,,0.00,meteohub,2013-04-15 19:45:00,
2013-04-15 15:50:00,67.1,50.4,29.86,South,180,7.0,10.0,55,0.00,,,0.00,meteohub,2013-04-15 19:50:00,
2013-04-15 15:57:00,66.9,50.2,29.85,SW,225,9.0,11.0,55,0.00,,,0.00,meteohub,2013-04-15 19:57:00,
2013-04-15 15:58:00,66.9,50.2,29.85,SW,225,5.0,11.0,55,0.00,,,0.00,meteohub,2013-04-15 19:58:00,
2013-04-15 16:00:00,66.9,50.2,29.85,South,180,4.0,11.0,55,0.00,,,0.00,meteohub,2013-04-15 20:00:00,
2013-04-15 16:02:00,66.9,50.2,29.85,West,270,8.0,11.0,55,0.00,,,0.00,meteohub,2013-04-15 20:02:00,
2013-04-15 16:03:00,66.9,50.2,29.85,NW,315,8.0,11.0,55,0.00,,,0.00,meteohub,2013-04-15 20:03:00,
2013-04-15 16:04:00,66.9,50.2,29.85,South,180,6.0,11.0,55,0.00,,,0.00,meteohub,2013-04-15 20:04:00,
2013-04-15 16:05:00,66.9,50.2,29.85,South,180,8.0,11.0,55,0.00,,,0.00,meteohub,2013-04-15 20:05:00,
2013-04-15 16:10:00,66.9,50.2,29.85,SW,225,8.0,9.0,55,0.00,,,0.00,meteohub,2013-04-15 20:10:00,
2013-04-15 16:15:00,66.9,50.2,29.85,South,180,3.0,12.0,55,0.00,,,0.00,meteohub,2013-04-15 20:15:00,
2013-04-15 16:20:00,66.7,50.0,29.85,SW,225,5.0,12.0,55,0.00,,,0.00,meteohub,2013-04-15 20:20:00,
2013-04-15 16:25:00,66.7,50.5,29.85,North,0,3.0,8.0,56,0.00,,,0.00,meteohub,2013-04-15 20:25:00,
2013-04-15 16:30:00,66.6,50.4,29.85,SW,225,2.0,7.0,56,0.00,,,0.00,meteohub,2013-04-15 20:30:00,
2013-04-15 16:36:00,66.4,50.2,29.85,West,270,6.0,6.0,56,0.00,,,0.00,meteohub,2013-04-15 20:36:00,
2013-04-15 16:41:00,66.2,50.0,29.85,SW,225,3.0,8.0,56,0.00,,,0.00,meteohub,2013-04-15 20:41:00,
2013-04-15 16:46:00,66.0,50.4,29.85,South,180,3.0,8.0,57,0.00,,,0.00,meteohub,2013-04-15 20:46:00,
2013-04-15 16:52:00,66.0,50.4,29.86,South,180,7.0,8.0,57,0.00,,,0.00,meteohub,2013-04-15 20:52:00,
2013-04-15 16:57:00,66.0,50.4,29.85,South,180,3.0,8.0,57,0.00,,,0.00,meteohub,2013-04-15 20:57:00,
2013-04-15 17:02:00,65.8,50.7,29.85,South,180,3.0,8.0,58,0.00,,,0.00,meteohub,2013-04-15 21:02:00,
2013-04-15 17:07:00,65.7,50.5,29.85,South,180,4.0,8.0,58,0.00,,,0.00,meteohub,2013-04-15 21:07:00,
2013-04-15 17:12:00,65.5,50.4,29.85,West,270,2.0,4.0,58,0.00,,,0.00,meteohub,2013-04-15 21:12:00,
2013-04-15 17:17:00,65.5,50.7,29.85,SW,225,7.0,7.0,59,0.00,,,0.00,meteohub,2013-04-15 21:17:00,
2013-04-15 17:22:00,65.7,50.5,29.85,NW,315,7.0,7.0,58,0.00,,,0.00,meteohub,2013-04-15 21:22:00,
2013-04-15 17:27:00,66.0,50.9,29.85,South,180,4.0,7.0,58,0.00,,,0.00,meteohub,2013-04-15 21:27:00,
2013-04-15 17:32:00,66.0,51.3,29.85,SW,225,8.0,8.0,59,0.00,,,0.00,meteohub,2013-04-15 21:32:00,
2013-04-15 17:37:00,66.2,50.5,29.85,South,180,3.0,8.0,57,0.00,,,0.00,meteohub,2013-04-15 21:37:00,
2013-04-15 17:42:00,66.4,50.7,29.85,West,270,5.0,8.0,57,0.00,,,0.00,meteohub,2013-04-15 21:42:00,
2013-04-15 17:47:00,66.7,51.1,29.85,South,180,3.0,8.0,57,0.00,,,0.00,meteohub,2013-04-15 21:47:00,
2013-04-15 17:52:00,66.9,51.3,29.85,SW,225,2.0,5.0,57,0.00,,,0.00,meteohub,2013-04-15 21:52:00,
2013-04-15 17:57:00,66.9,51.3,29.84,South,180,7.0,7.0,57,0.00,,,0.00,meteohub,2013-04-15 21:57:00,
2013-04-15 18:02:00,66.7,51.1,29.85,South,180,3.0,7.0,57,0.00,,,0.00,meteohub,2013-04-15 22:02:00,
2013-04-15 18:07:00,66.7,51.1,29.85,South,180,6.0,7.0,57,0.00,,,0.00,meteohub,2013-04-15 22:07:00,
2013-04-15 18:12:00,66.7,51.1,29.85,East,90,5.0,7.0,57,0.00,,,0.00,meteohub,2013-04-15 22:12:00,
2013-04-15 18:17:00,66.7,51.1,29.86,South,180,2.0,6.0,57,0.00,,,0.00,meteohub,2013-04-15 22:17:00,
2013-04-15 18:22:00,66.6,50.9,29.86,SW,225,4.0,6.0,57,0.00,,,0.00,meteohub,2013-04-15 22:22:00,
2013-04-15 18:27:00,66.4,50.7,29.86,SW,225,4.0,5.0,57,0.00,,,0.00,meteohub,2013-04-15 22:27:00,
2013-04-15 18:32:00,66.2,50.9,29.86,SE,135,2.0,4.0,58,0.00,,,0.00,meteohub,2013-04-15 22:32:00,
2013-04-15 18:37:00,66.0,51.3,29.86,SW,225,4.0,4.0,59,0.00,,,0.00,meteohub,2013-04-15 22:37:00,
2013-04-15 18:42:00,65.8,51.1,29.86,South,180,4.0,4.0,59,0.00,,,0.00,meteohub,2013-04-15 22:42:00,
2013-04-15 18:48:00,65.8,51.1,29.86,SW,225,5.0,7.0,59,0.00,,,0.00,meteohub,2013-04-15 22:48:00,
2013-04-15 18:53:00,65.7,50.9,29.86,South,180,4.0,7.0,59,0.00,,,0.00,meteohub,2013-04-15 22:53:00,
2013-04-15 18:58:00,65.7,50.9,29.86,South,180,0.0,7.0,59,0.00,,,0.00,meteohub,2013-04-15 22:58:00,
2013-04-15 19:03:00,65.3,51.1,29.86,SW,225,2.0,5.0,60,0.00,,,0.00,meteohub,2013-04-15 23:03:00,
2013-04-15 19:08:00,65.1,50.9,29.86,South,180,2.0,4.0,60,0.00,,,0.00,meteohub,2013-04-15 23:08:00,
2013-04-15 19:13:00,64.9,50.7,29.86,SW,225,2.0,4.0,60,0.00,,,0.00,meteohub,2013-04-15 23:13:00,
2013-04-15 19:18:00,64.8,51.1,29.86,NW,315,3.0,3.0,61,0.00,,,0.00,meteohub,2013-04-15 23:18:00,
2013-04-15 19:23:00,64.6,50.9,29.86,SW,225,1.0,3.0,61,0.00,,,0.00,meteohub,2013-04-15 23:23:00,
2013-04-15 19:29:00,64.4,50.7,29.86,South,180,2.0,3.0,61,0.00,,,0.00,meteohub,2013-04-15 23:29:00,
2013-04-15 19:34:00,64.4,51.1,29.86,South,180,3.0,4.0,62,0.00,,,0.00,meteohub,2013-04-15 23:34:00,
2013-04-15 19:39:00,64.2,50.9,29.86,South,180,3.0,4.0,62,0.00,,,0.00,meteohub,2013-04-15 23:39:00,
2013-04-15 19:44:00,63.9,51.1,29.87,SW,225,4.0,4.0,63,0.00,,,0.00,meteohub,2013-04-15 23:44:00,
2013-04-15 19:49:00,63.9,51.1,29.86,South,180,3.0,4.0,63,0.00,,,0.00,meteohub,2013-04-15 23:49:00,
2013-04-15 19:55:00,63.9,51.1,29.87,South,180,6.0,6.0,63,0.00,,,0.00,meteohub,2013-04-15 23:55:00,
2013-04-15 20:00:00,63.9,51.1,29.87,SW,225,4.0,6.0,63,0.00,,,0.00,meteohub,2013-04-16 00:00:00,
2013-04-15 20:05:00,64.0,51.3,29.87,West,270,5.0,6.0,63,0.00,,,0.00,meteohub,2013-04-16 00:05:00,
2013-04-15 20:10:00,64.0,50.7,29.87,South,180,3.0,6.0,62,0.00,,,0.00,meteohub,2013-04-16 00:10:00,
2013-04-15 20:15:00,64.0,50.7,29.87,SW,225,2.0,6.0,62,0.00,,,0.00,meteohub,2013-04-16 00:15:00,
2013-04-15 20:21:00,63.9,50.5,29.86,West,270,2.0,5.0,62,0.00,,,0.00,meteohub,2013-04-16 00:21:00,
2013-04-15 20:26:00,63.9,51.1,29.87,SW,225,2.0,4.0,63,0.00,,,0.00,meteohub,2013-04-16 00:26:00,
2013-04-15 20:31:00,63.9,51.1,29.87,NW,315,3.0,3.0,63,0.00,,,0.00,meteohub,2013-04-16 00:31:00,
2013-04-15 20:36:00,63.7,50.9,29.87,SW,225,3.0,3.0,63,0.00,,,0.00,meteohub,2013-04-16 00:36:00,
2013-04-15 20:41:00,63.7,50.9,29.87,SW,225,3.0,4.0,63,0.00,,,0.00,meteohub,2013-04-16 00:41:00,
2013-04-15 20:46:00,63.7,50.9,29.87,SW,225,1.0,4.0,63,0.00,,,0.00,meteohub,2013-04-16 00:46:00,
2013-04-15 20:51:00,63.7,50.9,29.88,South,180,2.0,5.0,63,0.00,,,0.00,meteohub,2013-04-16 00:51:00,
2013-04-15 20:57:00,63.5,50.7,29.88,South,180,0.0,5.0,63,0.00,,,0.00,meteohub,2013-04-16 00:57:00,
2013-04-15 21:02:00,63.3,50.5,29.88,South,180,2.0,5.0,63,0.00,,,0.00,meteohub,2013-04-16 01:02:00,
2013-04-15 21:07:00,63.1,50.4,29.88,North,0,2.0,3.0,63,0.00,,,0.00,meteohub,2013-04-16 01:07:00,
2013-04-15 21:12:00,63.0,50.5,29.88,South,180,2.0,3.0,64,0.00,,,0.00,meteohub,2013-04-16 01:12:00,
2013-04-15 21:17:00,62.6,51.1,29.89,South,180,2.0,3.0,66,0.00,,,0.00,meteohub,2013-04-16 01:17:00,
2013-04-15 21:22:00,61.5,52.3,29.89,South,180,2.0,2.0,72,0.01,,,0.01,meteohub,2013-04-16 01:22:00,
2013-04-15 21:27:00,60.8,52.5,29.90,South,180,2.0,2.0,74,0.01,,,0.01,meteohub,2013-04-16 01:27:00,
2013-04-15 21:32:00,60.4,52.9,29.89,SW,225,3.0,3.0,76,0.01,,,0.01,meteohub,2013-04-16 01:32:00,
2013-04-15 21:37:00,60.1,52.9,29.90,SW,225,2.0,3.0,77,0.01,,,0.01,meteohub,2013-04-16 01:37:00,
2013-04-15 21:42:00,59.7,52.9,29.89,South,180,0.0,3.0,78,0.01,,,0.01,meteohub,2013-04-16 01:42:00,
2013-04-15 21:47:00,59.5,53.1,29.90,South,180,0.0,3.0,79,0.02,,,0.02,meteohub,2013-04-16 01:47:00,
2013-04-15 21:52:00,59.2,53.1,29.90,SW,225,0.0,2.0,80,0.02,,,0.02,meteohub,2013-04-16 01:52:00,
2013-04-15 21:57:00,59.0,53.2,29.90,South,180,0.0,0.0,81,0.02,,,0.02,meteohub,2013-04-16 01:57:00,
2013-04-15 22:02:00,58.6,53.4,29.90,South,180,0.0,0.0,83,0.02,,,0.02,meteohub,2013-04-16 02:02:00,
2013-04-15 22:08:00,58.5,53.6,29.90,South,180,0.0,0.0,84,0.02,,,0.02,meteohub,2013-04-16 02:08:00,
2013-04-15 22:13:00,58.3,53.4,29.90,South,180,0.0,0.0,84,0.02,,,0.02,meteohub,2013-04-16 02:13:00,
2013-04-15 22:18:00,58.1,53.2,29.90,South,180,0.0,0.0,84,0.02,,,0.02,meteohub,2013-04-16 02:18:00,
2013-04-15 22:23:00,57.9,53.4,29.91,South,180,0.0,0.0,85,0.01,,,0.02,meteohub,2013-04-16 02:23:00,
2013-04-15 22:28:00,57.7,53.2,29.90,South,180,0.0,1.0,85,0.02,,,0.04,meteohub,2013-04-16 02:28:00,
2013-04-15 22:33:00,57.6,53.1,29.90,South,180,0.0,1.0,85,0.02,,,0.04,meteohub,2013-04-16 02:33:00,
2013-04-15 22:38:00,57.6,53.4,29.89,South,180,0.0,0.0,86,0.02,,,0.04,meteohub,2013-04-16 02:38:00,
2013-04-15 22:44:00,57.4,53.2,29.89,East,90,0.0,0.0,86,0.01,,,0.04,meteohub,2013-04-16 02:44:00,
2013-04-15 22:49:00,57.2,53.1,29.88,East,90,0.0,0.0,86,0.01,,,0.04,meteohub,2013-04-16 02:49:00,
2013-04-15 22:54:00,57.2,53.1,29.89,South,180,0.0,0.0,86,0.01,,,0.04,meteohub,2013-04-16 02:54:00,
2013-04-15 22:59:00,57.0,53.2,29.88,SW,225,0.0,0.0,87,0.01,,,0.04,meteohub,2013-04-16 02:59:00,
2013-04-15 23:04:00,57.0,53.4,29.88,SW,225,0.0,0.0,88,0.01,,,0.04,meteohub,2013-04-16 03:04:00,
2013-04-15 23:10:00,56.8,53.2,29.88,SW,225,0.0,0.0,88,0.01,,,0.04,meteohub,2013-04-16 03:10:00,
2013-04-15 23:15:00,56.7,53.1,29.88,SW,225,0.0,0.0,88,0.01,,,0.04,meteohub,2013-04-16 03:15:00,
2013-04-15 23:20:00,56.7,53.1,29.88,SE,135,0.0,0.0,88,0.01,,,0.04,meteohub,2013-04-16 03:20:00,
2013-04-15 23:25:00,56.5,52.9,29.88,West,270,1.0,1.0,88,0.00,,,0.04,meteohub,2013-04-16 03:25:00,
2013-04-15 23:30:00,56.5,52.9,29.88,SW,225,0.0,1.0,88,0.00,,,0.04,meteohub,2013-04-16 03:30:00,
2013-04-15 23:35:00,56.5,52.9,29.87,SW,225,0.0,1.0,88,0.00,,,0.04,meteohub,2013-04-16 03:35:00,
2013-04-15 23:41:00,56.5,53.2,29.87,SW,225,0.0,1.0,89,0.00,,,0.04,meteohub,2013-04-16 03:41:00,
2013-04-15 23:46:00,56.5,53.2,29.87,SW,225,0.0,2.0,89,0.00,,,0.04,meteohub,2013-04-16 03:46:00,
2013-04-15 23:51:00,56.5,53.2,29.87,South,180,0.0,2.0,89,0.00,,,0.04,meteohub,2013-04-16 03:51:00,
2013-04-15 23:56:00,56.5,53.2,29.88,SW,225,0.0,2.0,89,0.00,,,0.04,meteohub,2013-04-16 03:56:00,